Theta_e
323 312 308 307 301 296 292 294 298 301 304 310 314 309 307 310 306 299 329 334 336 337 341 343 346 347 346 346 345 346 345 341 339 338 337 336 336 336 336 336 336 335 336 337 337 336 339 336 334
314 311 308 301 295 291 292 296 299 302 311 315 314 313 311 308 319 326 329 334 338 338 340 341 344 346 345 346 346 346 345 341 340 338 337 336 336 335 336 335 335 334 335 337 336 336 335 334 332
310 308 303 298 293 291 293 298 300 306 313 309 311 315 310 313 323 327 331 336 336 335 338 339 344 346 345 345 345 345 344 342 339 338 336 336 336 335 334 334 334 334 334 335 335 334 334 333 332
308 306 301 295 292 295 297 302 306 306 306 312 313 309 313 319 325 328 336 335 332 333 335 339 343 346 345 346 345 344 343 340 338 337 336 334 335 333 334 333 333 333 334 333 334 334 334 334 332
306 302 295 292 293 296 298 305 306 304 305 308 311 308 310 319 326 334 334 333 330 331 334 337 343 345 345 346 344 344 344 340 339 336 335 335 335 333 332 332 332 332 333 333 333 333 334 333 332
301 300 294 292 293 296 299 305 304 303 306 309 310 311 311 320 330 332 333 330 331 330 333 336 335 340 342 344 344 343 343 341 338 335 334 334 334 333 332 332 332 332 332 332 332 332 332 332 332
300 296 293 296 292 293 298 305 302 303 305 306 314 307 307 323 328 332 332 331 331 331 331 332 334 335 335 338 339 341 341 339 338 336 335 335 332 333 332 333 332 331 331 331 331 331 331 331 330
301 298 292 292 292 292 298 300 303 305 303 314 314 304 305 317 329 331 331 330 329 329 330 330 331 332 332 334 332 334 336 336 336 334 332 331 331 332 332 330 332 331 330 330 330 330 329 330 329
301 295 293 298 296 295 300 299 302 308 307 309 312 309 312 322 329 327 327 328 329 328 327 328 329 328 329 331 328 329 330 331 330 328 326 324 323 324 324 327 330 330 330 329 328 328 327 325 326
299 293 296 302 297 297 300 300 303 305 306 305 308 312 317 326 327 323 323 323 325 326 328 327 327 327 328 332 328 327 328 326 324 323 322 322 321 320 322 321 326 327 327 329 328 327 324 320 317
299 295 300 301 300 302 301 298 301 304 301 305 308 313 319 324 325 322 322 322 323 325 327 327 327 326 326 327 325 324 323 322 321 320 320 320 320 318 318 318 318 317 317 317 318 318 317 317 317
297 301 303 305 301 300 299 301 299 303 303 304 310 316 319 321 323 322 324 321 321 323 326 327 326 325 324 325 324 322 321 319 318 319 320 318 317 316 315 315 315 314 315 314 315 316 317 317 317
297 299 303 304 302 298 298 297 297 299 302 309 315 317 318 319 321 323 324 324 322 322 323 325 326 326 323 323 323 321 319 318 318 318 320 318 315 314 313 313 312 313 314 315 316 316 317 317 317
302 301 302 303 298 297 296 295 295 297 303 309 314 314 315 317 319 318 321 323 323 324 323 324 325 326 324 322 321 322 319 319 318 318 319 318 315 312 312 312 313 314 315 316 316 316 316 316 316
304 297 299 300 299 297 298 295 295 298 305 307 311 311 314 316 317 319 322 322 324 325 324 323 324 325 325 323 321 320 321 321 318 319 320 318 316 313 314 314 315 316 317 317 316 316 315 314 313
297 297 295 300 296 297 298 292 298 300 305 304 308 310 312 314 317 319 320 323 322 324 324 325 326 324 324 324 323 321 320 320 319 319 319 319 318 317 315 315 315 317 317 316 316 315 314 312 310
291 286 290 297 298 297 296 292 298 299 304 302 304 308 310 312 314 317 320 321 322 323 324 324 325 322 323 323 322 321 319 319 319 319 319 319 319 318 317 315 316 317 316 316 315 314 313 310 310
287 286 289 293 297 293 292 292 296 297 298 300 300 302 308 311 314 318 319 320 320 322 323 325 326 325 322 321 319 318 317 316 317 318 319 319 319 318 316 315 316 316 315 314 313 313 312 314 313
292 288 289 292 297 293 292 293 295 298 295 296 297 297 300 309 315 316 318 320 319 319 320 323 324 326 325 318 316 314 317 315 314 315 317 318 318 317 316 315 315 315 315 315 314 313 313 314 308
296 293 288 294 297 294 294 294 297 297 297 298 299 299 298 299 307 314 315 317 319 320 320 321 323 325 326 326 322 318 318 315 317 316 316 317 317 318 318 316 315 315 314 314 313 312 310 312 309
296 294 292 292 294 292 290 290 293 296 298 301 299 301 301 301 300 303 312 315 318 319 320 320 322 323 325 327 323 316 314 313 313 313 315 317 318 318 318 317 317 315 315 315 314 313 311 309 310
292 298 297 296 293 286 289 283 287 293 295 297 298 299 302 301 300 301 306 313 316 318 321 322 321 322 324 326 324 322 321 318 319 318 317 316 317 318 318 318 317 316 316 315 314 313 314 311 308
295 299 297 296 291 290 287 286 287 290 292 295 300 300 300 303 304 304 301 310 316 319 319 321 321 321 322 323 325 323 322 323 322 316 314 315 315 318 318 317 316 316 316 316 315 311 312 313 313
299 296 295 293 291 285 288 287 284 290 293 295 300 301 301 302 302 303 303 307 314 318 319 320 320 320 321 322 323 322 322 322 318 314 315 315 316 316 317 317 318 317 317 316 315 315 313 313 314
297 292 284 282 283 281 284 285 290 291 294 297 298 299 300 300 301 301 300 301 310 315 317 319 319 319 321 321 321 322 322 321 321 318 317 317 315 314 316 316 316 317 317 317 317 315 315 314 314
293 292 283 277 278 279 284 282 287 295 300 298 297 299 298 298 299 299 300 299 305 312 316 318 318 319 320 321 321 321 322 322 322 321 320 318 318 317 317 316 318 317 317 317 316 316 316 316 315
293 289 290 283 271 276 281 285 290 292 294 296 296 296 298 300 298 296 298 298 300 308 314 317 317 318 319 320 321 321 321 321 321 320 319 320 318 317 316 317 317 317 316 316 316 316 315 316 315
295 296 287 285 277 273 279 280 285 287 292 296 296 297 297 297 297 296 293 295 296 304 309 313 317 316 316 317 319 319 320 320 320 316 316 317 317 315 312 314 315 316 317 317 317 317 318 317 317
292 291 291 290 283 277 276 281 287 292 293 296 297 298 296 296 296 296 292 292 294 296 303 308 311 313 314 312 313 314 315 316 316 317 316 316 315 313 315 316 317 318 318 318 317 318 318 317 316
296 293 293 286 283 282 279 284 288 291 291 291 292 294 294 294 295 293 291 292 292 296 299 303 306 308 310 311 312 311 310 310 312 313 314 312 313 314 316 318 317 317 317 318 317 317 315 313 312
Wind_Speed
8 8 2 5 5 6 1 3 1 3 1 1 2 3 5 3 3 4 1 4 7 6 5 6 10 12 13 13 12 12 14 15 15 14 15 14 15 13 14 15 14 14 14 15 15 16 18 17 15
6 6 5 3 6 3 4 3 6 4 5 6 4 2 5 2 1 4 5 5 7 6 5 6 9 11 12 12 11 12 14 15 14 13 16 13 14 13 13 14 14 14 14 15 14 15 17 15 14
4 4 4 5 3 4 4 4 4 2 6 1 4 5 2 3 0 7 4 9 7 6 5 6 8 10 11 10 10 10 14 15 14 14 13 13 14 13 12 13 14 13 14 14 14 15 16 15 15
4 5 5 5 2 3 3 4 5 6 2 2 4 6 1 2 6 5 8 9 8 6 6 6 8 10 11 10 11 13 15 16 15 12 11 12 14 12 13 13 13 12 12 14 14 14 14 14 14
4 3 4 3 3 4 2 4 7 4 3 3 2 4 2 2 2 9 9 8 10 6 6 6 8 10 11 12 12 11 13 14 14 12 11 10 13 11 11 11 12 12 12 13 13 13 13 12 13
4 3 4 2 3 4 2 4 5 3 4 3 4 6 4 0 10 7 9 7 7 8 5 6 6 6 10 11 11 11 11 12 12 11 10 10 12 10 10 10 10 11 11 12 12 13 12 11 10
5 4 3 3 2 4 3 6 5 5 4 4 8 6 1 3 5 7 7 7 7 6 6 5 5 6 7 8 10 11 10 11 11 10 8 8 10 9 9 8 8 9 10 11 11 11 11 10 8
4 4 3 3 3 4 3 4 2 5 4 3 4 4 5 7 8 7 8 8 6 6 6 6 5 4 4 5 8 10 11 9 10 10 9 8 9 9 9 6 7 9 9 9 9 9 10 9 8
3 4 1 3 5 4 3 4 2 1 6 1 2 4 3 10 10 7 8 6 6 4 5 5 5 5 5 5 5 7 9 10 10 8 8 6 4 5 6 4 6 7 7 7 6 6 7 8 8
4 3 7 3 3 3 4 3 7 4 4 3 3 2 3 12 14 14 12 12 10 9 7 6 6 5 5 4 5 5 5 4 4 5 6 4 4 3 3 3 4 4 4 5 6 7 8 6 3
4 5 3 2 1 2 4 2 3 7 4 6 9 6 9 13 13 11 9 11 13 9 8 7 7 6 6 4 3 2 3 3 3 5 4 3 3 2 2 2 2 3 5 3 5 4 3 4 3
3 5 3 4 2 1 4 6 4 6 5 2 8 7 12 16 17 13 13 7 8 7 10 10 7 7 6 4 3 4 4 3 3 4 6 4 3 3 3 2 3 2 1 1 1 1 2 2 2
2 3 3 4 5 3 2 3 3 6 6 3 5 8 13 11 11 8 7 7 7 9 9 9 9 8 5 5 4 3 4 4 4 5 5 4 4 4 4 2 1 1 0 0 0 1 1 1 1
3 5 4 1 1 2 1 2 2 4 4 4 7 9 9 11 12 5 7 10 10 9 10 9 9 8 7 6 6 5 4 4 4 4 4 5 4 3 3 2 2 2 2 1 2 3 2 1 1
2 1 4 4 4 3 3 6 6 5 2 5 7 7 7 9 7 13 12 11 11 8 8 11 11 9 9 8 6 5 5 4 4 4 5 6 5 5 4 4 4 4 4 4 2 2 1 1 2
4 1 2 3 5 3 8 10 5 6 6 9 9 8 8 9 11 9 8 9 9 8 10 10 9 10 10 9 7 5 5 4 4 4 4 6 6 6 5 4 4 4 3 3 2 2 1 0 1
6 3 4 6 8 3 5 8 6 5 8 10 9 7 7 7 9 10 9 9 9 11 10 10 9 11 11 8 6 6 6 5 5 4 4 6 6 7 6 4 4 4 3 3 3 3 2 2 2
5 4 3 6 4 3 4 10 8 2 7 10 8 7 8 9 16 13 9 9 9 10 10 11 10 11 10 5 4 3 3 4 4 6 6 7 6 7 5 4 5 4 4 4 3 4 2 2 4
5 2 5 4 3 4 7 13 9 11 4 8 9 8 9 11 14 8 10 11 8 8 10 12 12 11 8 4 4 3 6 4 3 5 7 7 6 7 7 5 5 5 5 6 5 3 5 2 4
4 1 3 5 4 4 7 14 9 8 8 11 12 13 12 7 7 8 9 10 13 12 13 13 13 12 11 8 6 4 4 4 3 4 6 7 8 8 8 7 7 6 4 5 5 5 3 3 6
5 6 3 4 6 4 5 12 11 7 9 11 9 12 10 13 13 10 10 14 13 15 17 14 15 14 13 13 5 3 2 1 3 3 5 8 10 9 9 8 7 7 6 5 6 6 7 5 5
16 8 9 6 3 5 1 12 8 6 10 10 10 11 16 13 10 12 11 11 15 18 14 15 15 15 13 14 11 14 11 11 9 8 7 7 10 10 9 9 8 7 6 7 7 6 6 4 5
4 7 6 2 3 3 5 6 7 1 6 9 13 12 14 17 15 16 14 16 16 14 15 15 14 14 14 14 15 11 13 10 7 4 6 7 7 10 9 9 8 9 6 8 8 6 8 7 6
7 5 3 3 0 11 11 8 6 9 9 8 17 12 12 13 12 13 11 10 11 12 11 12 15 16 14 14 15 16 16 13 7 5 7 6 7 6 9 9 9 9 9 10 9 10 11 10 9
6 9 3 4 6 11 2 9 19 7 9 14 13 13 12 10 9 10 10 9 12 14 14 13 16 16 16 16 16 18 17 13 14 11 10 9 6 5 9 11 10 9 11 11 10 10 11 10 10
18 9 6 8 6 4 3 11 9 13 18 11 10 11 7 8 8 10 11 9 10 12 14 15 16 16 16 17 18 16 16 11 11 11 8 8 9 9 8 11 11 12 11 10 10 9 9 10 11
6 13 1 3 2 2 6 10 9 11 12 13 16 11 15 14 9 10 9 9 9 9 13 15 15 15 14 16 14 14 13 14 12 12 9 9 8 7 9 11 11 11 10 11 10 9 11 10 11
13 9 4 2 5 6 7 7 14 1 10 15 13 15 14 8 8 8 7 7 7 8 7 8 10 13 13 13 11 11 12 13 12 7 10 11 9 7 6 8 9 9 10 11 10 10 11 12 11
7 10 6 5 5 5 6 10 10 15 15 18 17 15 9 8 9 9 8 5 5 6 8 8 9 9 9 10 10 10 10 10 8 10 9 10 7 8 9 10 11 11 10 10 10 13 13 13 14
16 15 15 6 17 5 1 16 4 8 7 5 11 8 7 8 9 7 7 6 4 4 5 7 6 7 7 7 7 9 7 7 8 8 7 6 7 6 9 8 9 9 10 11 12 12 9 8 9
Wind_Direction
331 319 30 39 55 65 227 222 264 139 151 330 39 122 154 70 151 196 21 136 129 130 133 126 132 130 126 123 125 124 116 114 111 106 104 101 99 98 100 102 101 100 104 96 84 87 87 89 86
328 335 38 73 85 81 261 236 183 181 149 137 85 68 51 98 134 122 129 140 120 131 117 114 131 132 134 134 138 133 126 117 114 117 106 105 102 104 99 103 98 104 107 97 88 92 95 91 88
339 31 74 89 102 177 205 203 166 119 152 90 94 53 106 149 163 153 134 130 121 119 121 132 130 136 139 135 140 134 129 121 116 105 109 108 102 101 104 99 99 100 108 101 95 95 97 90 91
18 11 37 85 218 250 233 160 141 127 214 90 122 78 32 230 164 168 135 131 118 127 129 136 144 148 147 138 138 135 130 123 118 113 110 114 102 105 99 99 97 101 107 103 95 93 97 93 91
31 64 59 78 272 278 275 161 150 151 140 117 177 177 144 292 114 137 135 140 131 136 135 139 152 157 151 145 138 135 128 123 120 122 121 121 107 109 105 106 104 106 109 104 98 93 91 94 89
40 85 65 191 251 284 270 176 141 139 153 153 83 133 181 121 148 151 137 147 133 140 144 130 137 137 139 141 139 129 123 122 119 121 126 126 112 111 108 109 106 107 110 107 99 93 88 89 91
100 82 199 179 234 308 210 148 154 175 143 218 149 129 247 200 174 144 140 137 135 136 130 125 134 142 136 132 134 127 127 126 122 123 127 123 120 115 108 97 103 103 103 100 93 87 80 76 83
102 93 153 245 178 251 185 180 136 150 200 117 161 181 218 200 160 135 141 142 132 140 135 143 135 125 119 124 121 128 126 122 120 117 109 91 82 94 97 78 103 104 97 91 80 71 69 67 74
116 62 202 231 160 234 167 168 108 75 114 238 210 160 276 148 139 139 142 133 143 149 147 144 142 138 133 130 132 117 115 120 115 108 109 102 117 111 105 122 107 113 111 101 77 56 59 70 62
92 129 216 215 211 216 197 171 160 145 131 253 281 124 104 144 160 170 168 170 175 174 168 157 153 159 146 131 144 130 128 130 127 133 142 139 121 112 113 103 107 97 80 66 50 39 59 70 61
150 186 240 297 280 210 171 165 171 134 235 208 207 172 157 165 175 179 183 179 178 179 179 172 162 160 157 146 142 130 128 128 134 144 134 110 88 58 52 53 38 42 44 32 24 20 36 53 71
154 240 256 297 36 250 173 130 197 192 217 273 216 158 164 174 187 189 188 189 176 174 184 178 164 165 170 147 160 157 148 157 159 169 159 147 143 148 157 170 184 163 125 82 35 22 356 31 91
204 239 228 258 288 280 158 214 198 241 244 29 131 151 178 181 191 193 184 186 175 186 188 188 168 172 170 167 157 160 173 174 181 169 172 161 166 178 177 195 178 198 49 327 333 262 282 303 69
223 246 273 267 309 290 224 282 128 279 124 125 164 193 189 192 188 164 187 189 186 199 192 184 181 176 165 179 174 173 181 193 182 180 184 179 176 179 171 176 208 226 208 223 217 223 249 279 275
251 308 326 236 204 223 156 286 216 234 165 187 212 214 218 215 187 199 198 200 185 195 191 185 184 179 182 183 186 180 189 190 189 195 192 185 182 184 179 196 209 218 209 212 226 247 240 330 9
151 151 237 276 147 240 146 259 240 213 165 229 220 222 217 224 226 217 199 204 186 182 183 189 189 183 189 190 186 185 183 184 199 200 188 191 185 183 195 211 224 218 210 199 199 200 238 321 48
23 200 200 295 204 150 180 258 251 172 195 234 226 223 231 240 238 232 209 201 194 192 183 189 190 186 192 195 184 191 187 189 197 192 199 196 190 193 196 200 218 209 206 209 199 213 194 149 96
189 195 244 210 241 199 227 260 284 241 195 242 260 241 227 237 239 230 211 204 196 195 193 192 193 194 188 173 170 168 191 202 185 208 206 191 195 196 192 199 212 196 201 212 198 206 197 142 142
126 211 202 243 263 191 236 254 247 266 227 253 259 258 240 229 249 203 209 209 199 193 195 196 191 197 178 167 173 190 212 207 205 207 207 201 196 193 198 204 202 194 201 205 194 173 189 168 154
123 209 274 290 265 195 274 269 244 247 244 225 228 245 244 238 232 225 207 198 207 205 203 204 202 194 195 197 194 175 170 205 202 191 206 202 200 202 199 198 205 201 202 205 194 176 183 193 180
267 228 234 242 331 284 316 271 259 241 240 245 229 232 239 231 234 229 208 204 203 208 207 202 203 202 198 199 168 124 106 140 166 188 204 211 208 208 205 203 205 203 194 209 203 190 187 198 204
224 187 223 242 314 250 122 285 255 219 237 257 249 225 236 234 232 231 213 208 203 215 208 206 200 199 201 194 194 205 214 219 218 212 208 199 201 208 206 206 204 203 198 206 207 198 205 171 213
233 159 189 196 188 321 242 284 269 254 244 250 251 238 223 231 230 233 213 214 210 208 202 204 199 201 199 196 202 204 219 225 225 188 187 204 200 208 204 203 202 206 202 214 203 195 206 206 218
133 95 84 79 193 253 233 210 207 218 200 239 240 237 227 227 227 235 228 213 209 206 197 193 195 205 196 194 201 206 215 216 201 190 204 204 207 200 208 204 209 210 210 211 210 213 212 212 219
185 143 167 209 194 242 262 195 248 273 243 224 234 236 234 218 226 232 227 207 210 198 195 189 192 201 196 196 200 209 215 210 213 204 209 208 201 203 209 202 206 213 217 218 213 213 220 215 224
198 186 174 198 197 245 136 235 250 225 233 244 242 249 257 243 225 221 232 222 218 208 198 195 195 201 195 198 206 208 211 212 217 214 207 211 211 210 197 202 210 216 217 217 215 221 225 223 228
163 215 154 79 90 40 220 281 285 237 252 247 257 252 253 244 218 227 229 218 213 206 203 199 198 205 197 200 205 209 209 214 218 213 203 212 213 208 201 202 208 217 218 221 217 224 229 226 234
188 126 174 150 186 248 251 258 239 211 244 254 254 252 250 249 227 220 228 228 214 209 205 199 202 201 201 199 200 203 206 210 216 192 208 211 217 209 191 202 211 215 218 219 218 231 237 235 238
172 188 196 153 182 219 258 256 210 213 220 235 247 257 280 249 231 208 206 223 219 201 192 192 193 192 192 187 193 196 200 202 200 206 212 213 202 194 204 211 215 221 223 224 219 226 233 232 240
220 218 197 195 215 244 351 268 160 224 266 271 283 290 262 232 241 216 189 194 207 213 201 199 189 191 193 182 181 198 196 193 205 217 223 199 211 205 215 218 216 221 223 227 228 237 237 241 247